Weather History for Goshen, IN

Change the Weather History Date:

Tuesday, February 12, 2013

  Actual Average Record
Temperature  
Mean Temperature 30 °F -  
Max Temperature 33 °F 32 °F 55 °F (1984)
Min Temperature 28 °F 16 °F -11 °F (2014)
Degree Days  
Heating Degree Days 34    
Moisture  
Dew Point 21 °F    
Average Humidity 70    
Maximum Humidity 75    
Minimum Humidity 64    
Precipitation  
Precipitation 0.00 in - - ()
Sea Level Pressure  
Sea Level Pressure 30.04 in    
Wind  
Wind Speed 12 mph (West)    
Max Wind Speed 17 mph    
Max Gust Speed 17 mph    
Visibility 10 miles    
Events      
Averages and records for this station are not official NWS values.
T = Trace of Precipitation, MM = Missing Value Source: NWS Daily Summary

Daily Weather History Graph

Daily Weather History Graph

Search for Another Location

Airport:

Trip Planner

Search our weather history database for the weather conditions in past years. The results will help you decide how hot, cold, wet, or windy it might be!

Date:

Astronomy

Feb. 12, 2013 Rise Set
Actual Time 7:41 AM EST 6:13 PM EST
Civil Twilight 7:13 AM EST 6:41 PM EST
Nautical Twilight 6:40 AM EST 7:14 PM EST
Astronomical Twilight 6:08 AM EST 7:46 PM EST
Moon 8:36 AM EST (2/12) 9:16 PM EST (2/12)
Length of Visible Light 11h 28m
Length of Day
10h 31m
Waxing Crescent, 7% of the Moon is Illuminated
Feb 12
Waxing Crescent
Feb 17
First Quarter
Feb 25
Full
Mar 4
Last Quarter
Mar 11
New

Hourly Weather History & Observations

Time (EST) Temp. Windchill Dew Point Humidity Pressure Visibility Wind Dir Wind Speed Gust Speed Precip Events Conditions
12:53 AM 30.9 °F 19.4 °F 21.0 °F 67% 30.01 in 10.0 mi West 17.3 mph - N/A   Overcast
1:53 AM 30.0 °F 18.7 °F 21.0 °F 69% 30.02 in 10.0 mi West 16.1 mph - N/A   Overcast
2:53 AM 30.0 °F 21.7 °F 21.9 °F 72% 30.04 in 10.0 mi West 9.2 mph - N/A   Overcast
3:53 AM 30.0 °F 19.5 °F 21.0 °F 69% 30.05 in 10.0 mi WNW 13.8 mph - N/A   Overcast
4:53 AM 30.0 °F 19.1 °F 21.0 °F 69% 30.06 in 10.0 mi West 15.0 mph - N/A   Overcast
5:53 AM 30.0 °F 19.1 °F 21.0 °F 69% 30.08 in 10.0 mi West 15.0 mph - N/A   Overcast
6:53 AM 28.9 °F 19.8 °F 21.0 °F 72% 30.08 in 10.0 mi West 10.4 mph - N/A   Overcast
7:53 AM 28.9 °F 22.8 °F 21.0 °F 72% 30.08 in 10.0 mi WNW 5.8 mph - N/A   Overcast
8:53 AM 28.9 °F 21.9 °F 21.9 °F 75% 30.10 in 10.0 mi West 6.9 mph - N/A   Overcast
9:53 AM 28.9 °F 21.1 °F 21.0 °F 72% 30.10 in 10.0 mi WSW 8.1 mph - N/A   Overcast
10:53 AM 28.9 °F 21.9 °F 19.9 °F 69% 30.11 in 10.0 mi WSW 6.9 mph 17.3 mph N/A   Overcast
11:53 AM 30.0 °F 22.4 °F 19.9 °F 66% 30.10 in 10.0 mi SW 8.1 mph - N/A   Mostly Cloudy
12:46 PM 32.0 °F 24.2 °F 21.2 °F 64% 30.03 in 10.0 mi WSW 9.2 mph - N/A   Scattered Clouds
12:53 PM 32.0 °F 23.6 °F 21.9 °F 66% 30.04 in 10.0 mi West 10.4 mph - N/A   Partly Cloudy
1:16 PM 32.0 °F 27.5 °F 21.2 °F 64% 30.00 in 10.0 mi West 4.6 mph - N/A   Mostly Cloudy
1:53 PM 33.1 °F 25.5 °F 21.9 °F 64% 30.03 in 10.0 mi West 9.2 mph - N/A   Mostly Cloudy
2:53 PM 33.1 °F 23.4 °F 23.0 °F 66% 30.02 in 10.0 mi West 13.8 mph - N/A   Mostly Cloudy
3:53 PM 32.0 °F 22.1 °F 23.0 °F 69% 30.03 in 10.0 mi West 13.8 mph - N/A   Overcast
4:53 PM 30.9 °F 21.7 °F 21.9 °F 69% 30.02 in 10.0 mi West 11.5 mph - N/A   Overcast
5:53 PM 30.9 °F 21.2 °F 23.0 °F 72% 30.01 in 10.0 mi West 12.7 mph - N/A   Overcast
6:53 PM 30.0 °F 20.5 °F 21.9 °F 72% 30.00 in 10.0 mi West 11.5 mph - N/A   Overcast
7:53 PM 30.0 °F 21.1 °F 21.9 °F 72% 30.01 in 10.0 mi West 10.4 mph - N/A   Overcast
8:53 PM 30.0 °F 21.7 °F 21.9 °F 72% 29.99 in 10.0 mi West 9.2 mph - N/A   Overcast
9:53 PM 28.9 °F 20.4 °F 21.9 °F 75% 29.98 in 10.0 mi West 9.2 mph - N/A   Overcast
10:53 PM 28.0 °F 21.7 °F 21.0 °F 75% 29.96 in 9.0 mi NW 5.8 mph - N/A   Overcast
11:53 PM 28.0 °F 24.2 °F 21.0 °F 75% 29.97 in 8.0 mi West 3.5 mph - N/A   Overcast